User: anonymous   Login
Location: Irma
(52.9170°N, 111.2330°W)
Time: 16:32:13
(UTC-06:00)
Language:

Cosmos 2279 Rocket - Orbit

View from above orbital plane
View from above orbital plane
View from above satellite
View from above satellite

Ground track
Ground track

The orbit data is extracted from the following two-line orbital elements,

1 23093U 94024B   17142.95117792 +.00000155 +00000-0 +14016-3 0  9998
2 23093 082.9445 133.2688 0011633 076.7858 283.4596 13.77731578627716
Epoch (UTC): 22 May 2017 22:49:41
Eccentricity: 0.0011633
inclination: 82.9445°
perigee height: 963 km
apogee height: 980 km
right ascension of ascending node: 133.2688°
argument of perigee: 76.7858°
revolutions per day: 13.77731578
mean anomaly at epoch: 283.4596°
orbit number at epoch: 62771

The dashed part of the orbit path shows where the satellite is in the earth's shadow,  

DLR